Agara

Georgia     42˚02′15″N   43˚49′40″E
temp.,
°C
wind,
m/s
gust,
m/s
humid.,
%
clouds,
%
prec.,
mm/h
press.,
hPa
HPBL,
m
28 november, sat
sat2801:00−1˚e46760 0.0 1033161
04:00−1˚e46770 0.0 1032171
07:00−1˚e46710 0.0 1031188
10:00+1˚e46610 0.0 1030329
13:00+5˚ene67570 0.0 1027421
16:00+6˚e57569 0.0 1026335
19:00+1˚ese346194 0.0 1028125
22:00+1˚e356088 0.0 1028142
29 november, sun
sun2901:00e246221 0.0 1028115
04:00−1˚e226412 0.0 102874
07:00−1˚e226534 0.0 102761
10:00+1˚ene345742 0.0 1026219
13:00+5˚ene455052 0.0 1024380
16:00+6˚ene455460 0.0 1023267
19:00+3˚ese2261100 0.0 102454
22:00+2˚e2359100 0.0 102575
30 november, mon
mon3001:00+2˚ese3464100 0.0 102590
04:00+1˚ese347597 0.0 1024108
07:00+1˚e2383100 0.0 102483
10:00+4˚ene357587 0.0 1023241
13:00+7˚ene576638 0.0 1020441
16:00+7˚e686564 0.0 1020463
19:00+4˚e467645 0.0 1022200
22:00+2˚ese347723 0.0 1022139
1 december, tue
tue101:00+1˚ese34841 0.0 1022139
04:00+1˚e34851 0.0 1022136
07:00e35871 0.0 1022139
10:00+3˚e46741 0.0 1022309
13:00+6˚ene56640 0.0 1020488
16:00+6˚ene45630 0.0 1020417
19:00+3˚e22790 0.0 102355
22:00+2˚e12750 0.0 102429
2 december, wed
wed201:00+1˚e22765 0.0 102433
04:00e227732 0.0 102428
07:00−1˚e127476 0.0 102522
10:00+2˚ene236479 0.0 1024156
13:00+5˚ene356092 0.0 1023390
16:00+7˚ene346293 0.0 1022406
19:00+3˚e228120 0.0 102434
22:00+2˚e238018 0.0 102564